Time,TemperatureF,DewpointF,PressureIn,WindDirection,WindDirectionDegrees,WindSpeedMPH,WindSpeedGustMPH,Humidity,HourlyPrecipIn,Conditions,Clouds,dailyrainin,SoftwareType,DateUTC
2013-01-17 00:00:00,28.0,21.4,28.03,WNW,284,5.0,12.0,76,0.00,,,1.42,WUHU216DAVISWMX,2013-01-17 05:00:00,
2013-01-17 00:01:00,27.9,21.3,28.03,WNW,283,5.0,12.0,76,0.00,,,1.42,WUHU216DAVISWMX,2013-01-17 05:01:00,
2013-01-17 00:02:00,27.9,21.3,28.03,West,279,3.0,12.0,76,0.00,,,1.42,WUHU216DAVISWMX,2013-01-17 05:02:00,
2013-01-17 00:03:00,28.0,21.4,28.03,West,271,1.0,12.0,76,0.00,,,1.42,WUHU216DAVISWMX,2013-01-17 05:03:00,
2013-01-17 00:08:00,28.0,21.4,28.03,West,276,5.0,19.0,76,0.00,,,1.42,WUHU216DAVISWMX,2013-01-17 05:08:00,
2013-01-17 00:13:00,28.0,21.1,28.03,WNW,295,2.0,19.0,75,0.00,,,1.42,WUHU216DAVISWMX,2013-01-17 05:13:00,
2013-01-17 00:18:00,27.8,20.9,28.04,West,272,2.0,9.0,75,0.00,,,1.42,WUHU216DAVISWMX,2013-01-17 05:18:00,
2013-01-17 00:23:00,27.8,21.2,28.04,WNW,288,5.0,8.0,76,0.00,,,1.42,WUHU216DAVISWMX,2013-01-17 05:23:00,
2013-01-17 00:28:00,27.8,20.9,28.04,WSW,247,4.0,11.0,75,0.00,,,1.42,WUHU216DAVISWMX,2013-01-17 05:28:00,
2013-01-17 00:33:00,27.8,20.9,28.04,West,259,4.0,12.0,75,0.00,,,1.42,WUHU216DAVISWMX,2013-01-17 05:33:00,
2013-01-17 00:38:00,27.8,20.9,28.05,WSW,248,5.0,12.0,75,0.00,,,1.42,WUHU216DAVISWMX,2013-01-17 05:38:00,
2013-01-17 00:43:00,27.8,20.9,28.04,WNW,282,5.0,12.0,75,0.00,,,1.42,WUHU216DAVISWMX,2013-01-17 05:43:00,
2013-01-17 00:48:00,27.8,20.9,28.05,West,273,0.0,13.0,75,0.00,,,1.42,WUHU216DAVISWMX,2013-01-17 05:48:00,
2013-01-17 00:53:00,27.8,20.9,28.05,West,273,0.0,13.0,75,0.00,,,1.42,WUHU216DAVISWMX,2013-01-17 05:53:00,
2013-01-17 00:58:00,27.8,20.9,28.04,West,273,0.0,0.0,75,0.00,,,1.42,WUHU216DAVISWMX,2013-01-17 05:58:00,
2013-01-17 01:03:00,27.8,20.9,28.05,West,273,0.0,0.0,75,0.00,,,1.42,WUHU216DAVISWMX,2013-01-17 06:03:00,
2013-01-17 01:08:00,27.8,20.9,28.05,West,273,0.0,0.0,75,0.00,,,1.42,WUHU216DAVISWMX,2013-01-17 06:08:00,
2013-01-17 01:13:00,27.8,20.9,28.05,West,273,0.0,0.0,75,0.00,,,1.42,WUHU216DAVISWMX,2013-01-17 06:13:00,
2013-01-17 01:18:00,27.8,20.9,28.05,West,273,0.0,0.0,75,0.00,,,1.42,WUHU216DAVISWMX,2013-01-17 06:18:00,
2013-01-17 01:23:00,27.8,20.9,28.05,West,273,0.0,0.0,75,0.00,,,1.42,WUHU216DAVISWMX,2013-01-17 06:23:00,
2013-01-17 01:49:00,27.5,20.7,28.06,WNW,282,7.0,7.0,75,0.00,,,1.42,WUHU216DAVISWMX,2013-01-17 06:49:00,
2013-01-17 01:54:00,27.6,20.7,28.05,WNW,290,0.0,7.0,75,0.00,,,1.42,WUHU216DAVISWMX,2013-01-17 06:54:00,
2013-01-17 01:59:00,27.7,20.5,28.06,WNW,290,2.0,9.0,74,0.00,,,1.42,WUHU216DAVISWMX,2013-01-17 06:59:00,
2013-01-17 02:04:00,27.7,20.2,28.06,West,270,0.0,9.0,73,0.00,,,1.42,WUHU216DAVISWMX,2013-01-17 07:04:00,
2013-01-17 02:09:00,27.7,20.2,28.05,West,270,0.0,7.0,73,0.00,,,1.42,WUHU216DAVISWMX,2013-01-17 07:09:00,
2013-01-17 02:14:00,27.7,20.2,28.05,West,270,0.0,0.0,73,0.00,,,1.42,WUHU216DAVISWMX,2013-01-17 07:14:00,
2013-01-17 02:19:00,27.7,20.5,28.06,West,270,0.0,0.0,74,0.00,,,1.42,WUHU216DAVISWMX,2013-01-17 07:19:00,
2013-01-17 02:24:00,27.7,20.2,28.06,West,270,0.0,0.0,73,0.00,,,1.42,WUHU216DAVISWMX,2013-01-17 07:24:00,
2013-01-17 02:28:00,27.6,20.1,28.07,West,276,0.0,0.0,73,0.00,,,1.42,WUHU216DAVISWMX,2013-01-17 07:28:00,
2013-01-17 02:29:00,27.6,20.1,28.07,West,270,0.0,0.0,73,0.00,,,1.42,WUHU216DAVISWMX,2013-01-17 07:29:00,
2013-01-17 02:34:00,27.6,20.1,28.07,West,276,0.0,0.0,73,0.00,,,1.42,WUHU216DAVISWMX,2013-01-17 07:34:00,
2013-01-17 03:02:00,27.1,18.3,28.05,WNW,288,2.0,2.0,69,0.00,,,1.42,WUHU216DAVISWMX,2013-01-17 08:02:00,
2013-01-17 03:07:00,27.2,18.4,28.05,WSW,252,3.0,8.0,69,0.00,,,1.42,WUHU216DAVISWMX,2013-01-17 08:07:00,
2013-01-17 03:12:00,27.1,18.7,28.06,WNW,283,2.0,8.0,70,0.00,,,1.42,WUHU216DAVISWMX,2013-01-17 08:12:00,
2013-01-17 03:17:00,27.0,18.6,28.06,WNW,291,6.0,20.0,70,0.00,,,1.42,WUHU216DAVISWMX,2013-01-17 08:17:00,
2013-01-17 03:22:00,27.0,18.6,28.06,West,272,1.0,20.0,70,0.00,,,1.42,WUHU216DAVISWMX,2013-01-17 08:22:00,
2013-01-17 03:27:00,26.9,18.5,28.06,WNW,282,4.0,13.0,70,0.00,,,1.42,WUHU216DAVISWMX,2013-01-17 08:27:00,
2013-01-17 03:32:00,26.8,18.0,28.06,WNW,297,7.0,12.0,69,0.00,,,1.42,WUHU216DAVISWMX,2013-01-17 08:32:00,
2013-01-17 03:37:00,26.8,18.4,28.07,West,273,2.0,9.0,70,0.00,,,1.42,WUHU216DAVISWMX,2013-01-17 08:37:00,
2013-01-17 03:42:00,26.7,18.3,28.07,West,265,9.0,13.0,70,0.00,,,1.42,WUHU216DAVISWMX,2013-01-17 08:42:00,
2013-01-17 03:47:00,26.6,18.5,28.07,West,273,0.0,13.0,71,0.00,,,1.42,WUHU216DAVISWMX,2013-01-17 08:47:00,
2013-01-17 03:52:00,26.5,18.4,28.07,WSW,239,3.0,5.0,71,0.00,,,1.42,WUHU216DAVISWMX,2013-01-17 08:52:00,
2013-01-17 03:57:00,26.4,18.3,28.08,WNW,292,0.0,11.0,71,0.00,,,1.42,WUHU216DAVISWMX,2013-01-17 08:57:00,
2013-01-17 04:02:00,26.4,18.3,28.07,WNW,300,5.0,16.0,71,0.00,,,1.42,WUHU216DAVISWMX,2013-01-17 09:02:00,
2013-01-17 04:07:00,26.3,18.2,28.07,West,265,5.0,16.0,71,0.00,,,1.42,WUHU216DAVISWMX,2013-01-17 09:07:00,
2013-01-17 04:12:00,26.3,18.2,28.08,WNW,302,0.0,15.0,71,0.00,,,1.42,WUHU216DAVISWMX,2013-01-17 09:12:00,
2013-01-17 04:17:00,26.4,18.3,28.09,WNW,302,0.0,10.0,71,0.00,,,1.42,WUHU216DAVISWMX,2013-01-17 09:17:00,
2013-01-17 04:22:00,26.4,18.3,28.09,WNW,302,0.0,0.0,71,0.00,,,1.42,WUHU216DAVISWMX,2013-01-17 09:22:00,
2013-01-17 04:27:00,26.5,18.4,28.09,WNW,301,0.0,0.0,71,0.00,,,1.42,WUHU216DAVISWMX,2013-01-17 09:27:00,
2013-01-17 04:32:00,26.4,18.3,28.10,WNW,302,0.0,0.0,71,0.00,,,1.42,WUHU216DAVISWMX,2013-01-17 09:32:00,
2013-01-17 04:37:00,26.4,18.3,28.10,WNW,302,0.0,0.0,71,0.00,,,1.42,WUHU216DAVISWMX,2013-01-17 09:37:00,
2013-01-17 04:38:00,26.4,18.3,28.10,NW,320,0.0,0.0,71,0.00,,,1.42,WUHU216DAVISWMX,2013-01-17 09:38:00,
2013-01-17 04:42:00,26.4,18.3,28.10,NW,320,0.0,0.0,71,0.00,,,1.42,WUHU216DAVISWMX,2013-01-17 09:42:00,
2013-01-17 04:47:00,26.4,18.3,28.10,NW,320,0.0,0.0,71,0.00,,,1.42,WUHU216DAVISWMX,2013-01-17 09:47:00,
2013-01-17 05:07:00,25.9,19.4,28.09,West,281,7.0,7.0,76,0.00,,,1.42,WUHU216DAVISWMX,2013-01-17 10:07:00,
2013-01-17 05:12:00,25.8,19.3,28.10,West,271,2.0,8.0,76,0.00,,,1.42,WUHU216DAVISWMX,2013-01-17 10:12:00,
2013-01-17 05:17:00,25.9,19.7,28.10,West,266,2.0,9.0,77,0.00,,,1.42,WUHU216DAVISWMX,2013-01-17 10:17:00,
2013-01-17 05:22:00,25.9,19.7,28.10,West,277,7.0,9.0,77,0.00,,,1.42,WUHU216DAVISWMX,2013-01-17 10:22:00,
2013-01-17 05:27:00,25.8,19.6,28.09,WNW,289,2.0,11.0,77,0.00,,,1.42,WUHU216DAVISWMX,2013-01-17 10:27:00,
2013-01-17 05:32:00,25.8,19.6,28.10,WNW,301,9.0,11.0,77,0.00,,,1.42,WUHU216DAVISWMX,2013-01-17 10:32:00,
2013-01-17 05:37:00,25.6,19.4,28.09,West,270,3.0,14.0,77,0.00,,,1.42,WUHU216DAVISWMX,2013-01-17 10:37:00,
2013-01-17 05:42:00,25.6,19.7,28.10,WNW,300,3.0,14.0,78,0.00,,,1.42,WUHU216DAVISWMX,2013-01-17 10:42:00,
2013-01-17 05:47:00,25.5,19.9,28.11,WNW,285,7.0,11.0,79,0.00,,,1.42,WUHU216DAVISWMX,2013-01-17 10:47:00,
2013-01-17 05:52:00,25.4,19.8,28.11,WNW,289,5.0,10.0,79,0.00,,,1.42,WUHU216DAVISWMX,2013-01-17 10:52:00,
2013-01-17 05:57:00,25.4,20.1,28.12,West,280,0.0,10.0,80,0.00,,,1.42,WUHU216DAVISWMX,2013-01-17 10:57:00,
2013-01-17 06:02:00,25.4,20.1,28.12,West,280,1.0,7.0,80,0.00,,,1.42,WUHU216DAVISWMX,2013-01-17 11:02:00,
2013-01-17 06:07:00,25.4,20.1,28.11,WNW,288,5.0,7.0,80,0.00,,,1.42,WUHU216DAVISWMX,2013-01-17 11:07:00,
2013-01-17 06:12:00,25.3,20.0,28.12,NW,306,1.0,8.0,80,0.00,,,1.42,WUHU216DAVISWMX,2013-01-17 11:12:00,
2013-01-17 06:17:00,25.3,20.3,28.12,West,280,0.0,10.0,81,0.00,,,1.42,WUHU216DAVISWMX,2013-01-17 11:17:00,
2013-01-17 06:22:00,25.2,20.2,28.13,WNW,286,1.0,10.0,81,0.00,,,1.42,WUHU216DAVISWMX,2013-01-17 11:22:00,
2013-01-17 06:27:00,25.2,20.2,28.12,West,262,5.0,11.0,81,0.00,,,1.42,WUHU216DAVISWMX,2013-01-17 11:27:00,
2013-01-17 06:32:00,25.1,20.1,28.12,WNW,290,1.0,11.0,81,0.00,,,1.42,WUHU216DAVISWMX,2013-01-17 11:32:00,
2013-01-17 06:37:00,25.0,20.3,28.12,WNW,288,0.0,11.0,82,0.00,,,1.42,WUHU216DAVISWMX,2013-01-17 11:37:00,
2013-01-17 06:42:00,25.0,20.3,28.12,WNW,288,0.0,3.0,82,0.00,,,1.42,WUHU216DAVISWMX,2013-01-17 11:42:00,
2013-01-17 06:47:00,25.0,20.3,28.13,WNW,288,0.0,0.0,82,0.00,,,1.42,WUHU216DAVISWMX,2013-01-17 11:47:00,
2013-01-17 06:52:00,25.0,20.3,28.13,WNW,288,0.0,0.0,82,0.00,,,1.42,WUHU216DAVISWMX,2013-01-17 11:52:00,
2013-01-17 06:57:00,25.0,20.3,28.13,WNW,288,0.0,0.0,82,0.00,,,1.42,WUHU216DAVISWMX,2013-01-17 11:57:00,
2013-01-17 07:00:00,24.9,20.5,28.12,WNW,288,0.0,0.0,83,0.00,,,1.42,WUHU216DAVISWMX,2013-01-17 12:00:00,
2013-01-17 07:02:00,25.0,20.3,28.12,WNW,288,0.0,0.0,82,0.00,,,1.42,WUHU216DAVISWMX,2013-01-17 12:02:00,
2013-01-17 07:07:00,24.9,20.5,28.12,WNW,288,0.0,0.0,83,0.00,,,1.42,WUHU216DAVISWMX,2013-01-17 12:07:00,
2013-01-17 07:39:00,24.3,20.9,28.14,WNW,302,4.0,4.0,87,0.00,,,1.42,WUHU216DAVISWMX,2013-01-17 12:39:00,
2013-01-17 07:44:00,24.4,21.3,28.14,West,278,8.0,12.0,88,0.00,,,1.42,WUHU216DAVISWMX,2013-01-17 12:44:00,
2013-01-17 07:49:00,24.5,21.1,28.15,WNW,301,1.0,12.0,87,0.00,,,1.42,WUHU216DAVISWMX,2013-01-17 12:49:00,
2013-01-17 07:54:00,24.6,21.2,28.14,West,278,4.0,10.0,87,0.00,,,1.42,WUHU216DAVISWMX,2013-01-17 12:54:00,
2013-01-17 07:59:00,24.6,21.5,28.15,West,278,0.0,6.0,88,0.00,,,1.42,WUHU216DAVISWMX,2013-01-17 12:59:00,
2013-01-17 08:04:00,24.7,21.1,28.15,West,278,4.0,6.0,86,0.00,,,1.42,WUHU216DAVISWMX,2013-01-17 13:04:00,
2013-01-17 08:09:00,24.7,21.1,28.15,West,279,2.0,7.0,86,0.00,,,1.42,WUHU216DAVISWMX,2013-01-17 13:09:00,
2013-01-17 08:14:00,24.7,21.3,28.15,West,279,3.0,7.0,87,0.00,,,1.42,WUHU216DAVISWMX,2013-01-17 13:14:00,
2013-01-17 08:19:00,24.7,21.3,28.15,WNW,296,4.0,7.0,87,0.00,,,1.42,WUHU216DAVISWMX,2013-01-17 13:19:00,
2013-01-17 08:24:00,24.7,21.1,28.15,West,265,0.0,8.0,86,0.00,,,1.42,WUHU216DAVISWMX,2013-01-17 13:24:00,
2013-01-17 08:29:00,24.7,21.1,28.16,WSW,258,0.0,8.0,86,0.00,,,1.42,WUHU216DAVISWMX,2013-01-17 13:29:00,
2013-01-17 08:34:00,24.7,21.1,28.16,WSW,258,0.0,5.0,86,0.00,,,1.42,WUHU216DAVISWMX,2013-01-17 13:34:00,
2013-01-17 08:39:00,24.7,21.1,28.16,WSW,258,0.0,0.0,86,0.00,,,1.42,WUHU216DAVISWMX,2013-01-17 13:39:00,
2013-01-17 08:44:00,24.7,21.1,28.17,WSW,258,0.0,0.0,86,0.00,,,1.42,WUHU216DAVISWMX,2013-01-17 13:44:00,
2013-01-17 08:49:00,24.7,21.1,28.16,WSW,258,0.0,0.0,86,0.00,,,1.42,WUHU216DAVISWMX,2013-01-17 13:49:00,
2013-01-17 08:54:00,24.7,21.1,28.17,West,259,0.0,0.0,86,0.00,,,1.42,WUHU216DAVISWMX,2013-01-17 13:54:00,
2013-01-17 08:56:00,24.5,20.9,28.16,West,267,0.0,0.0,86,0.00,,,1.42,WUHU216DAVISWMX,2013-01-17 13:56:00,
2013-01-17 08:59:00,24.6,21.0,28.17,West,259,0.0,0.0,86,0.00,,,1.42,WUHU216DAVISWMX,2013-01-17 13:59:00,
2013-01-17 09:04:00,24.5,20.9,28.16,West,267,0.0,0.0,86,0.00,,,1.42,WUHU216DAVISWMX,2013-01-17 14:04:00,
2013-01-17 09:55:00,25.0,20.5,28.18,NW,308,6.0,6.0,83,0.00,,,1.42,WUHU216DAVISWMX,2013-01-17 14:55:00,
2013-01-17 10:00:00,25.0,20.5,28.19,WNW,296,7.0,8.0,83,0.00,,,1.42,WUHU216DAVISWMX,2013-01-17 15:00:00,
2013-01-17 10:05:00,24.8,20.4,28.19,NNW,341,0.0,8.0,83,0.00,,,1.42,WUHU216DAVISWMX,2013-01-17 15:05:00,
2013-01-17 10:10:00,24.8,20.4,28.19,NW,306,3.0,8.0,83,0.00,,,1.42,WUHU216DAVISWMX,2013-01-17 15:10:00,
2013-01-17 10:15:00,24.7,20.3,28.18,NW,306,5.0,9.0,83,0.00,,,1.42,WUHU216DAVISWMX,2013-01-17 15:15:00,
2013-01-17 10:20:00,24.5,20.1,28.18,WNW,303,4.0,9.0,83,0.00,,,1.42,WUHU216DAVISWMX,2013-01-17 15:20:00,
2013-01-17 10:25:00,24.2,19.8,28.18,NW,311,3.0,10.0,83,0.00,,,1.42,WUHU216DAVISWMX,2013-01-17 15:25:00,
2013-01-17 10:30:00,24.1,19.7,28.19,NW,311,0.0,10.0,83,0.00,,,1.42,WUHU216DAVISWMX,2013-01-17 15:30:00,
2013-01-17 10:35:00,23.6,19.2,28.19,NW,316,5.0,8.0,83,0.00,,,1.42,WUHU216DAVISWMX,2013-01-17 15:35:00,
2013-01-17 10:40:00,23.5,19.1,28.19,NW,305,0.0,8.0,83,0.00,,,1.42,WUHU216DAVISWMX,2013-01-17 15:40:00,
2013-01-17 10:45:00,24.0,19.6,28.19,WNW,298,0.0,8.0,83,0.00,,,1.42,WUHU216DAVISWMX,2013-01-17 15:45:00,
2013-01-17 10:50:00,23.8,19.4,28.19,WNW,299,2.0,8.0,83,0.00,,,1.42,WUHU216DAVISWMX,2013-01-17 15:50:00,
2013-01-17 10:55:00,24.4,20.0,28.19,WNW,302,7.0,7.0,83,0.00,,,1.42,WUHU216DAVISWMX,2013-01-17 15:55:00,
2013-01-17 11:00:00,24.4,20.0,28.19,WNW,302,0.0,7.0,83,0.00,,,1.42,WUHU216DAVISWMX,2013-01-17 16:00:00,
2013-01-17 11:05:00,24.4,20.0,28.18,WNW,302,0.0,5.0,83,0.00,,,1.42,WUHU216DAVISWMX,2013-01-17 16:05:00,
2013-01-17 11:10:00,25.0,20.5,28.18,WNW,302,0.0,4.0,83,0.00,,,1.42,WUHU216DAVISWMX,2013-01-17 16:10:00,
2013-01-17 11:15:00,25.2,20.7,28.18,WNW,302,0.0,5.0,83,0.00,,,1.42,WUHU216DAVISWMX,2013-01-17 16:15:00,
2013-01-17 11:20:00,24.9,20.2,28.17,NW,312,1.0,6.0,82,0.00,,,1.42,WUHU216DAVISWMX,2013-01-17 16:20:00,
2013-01-17 11:25:00,24.9,20.2,28.17,WNW,289,0.0,6.0,82,0.00,,,1.42,WUHU216DAVISWMX,2013-01-17 16:25:00,
2013-01-17 11:30:00,25.0,20.5,28.18,West,275,5.0,6.0,83,0.00,,,1.42,WUHU216DAVISWMX,2013-01-17 16:30:00,
2013-01-17 11:35:00,25.3,20.6,28.17,WNW,293,0.0,5.0,82,0.00,,,1.42,WUHU216DAVISWMX,2013-01-17 16:35:00,
2013-01-17 11:40:00,25.2,20.5,28.17,WNW,293,3.0,5.0,82,0.00,,,1.42,WUHU216DAVISWMX,2013-01-17 16:40:00,
2013-01-17 11:45:00,25.2,20.5,28.16,WNW,293,0.0,5.0,82,0.00,,,1.42,WUHU216DAVISWMX,2013-01-17 16:45:00,
2013-01-17 11:50:00,25.3,20.6,28.17,WNW,294,0.0,4.0,82,0.00,,,1.42,WUHU216DAVISWMX,2013-01-17 16:50:00,
2013-01-17 11:55:00,25.4,20.7,28.17,WNW,302,6.0,7.0,82,0.00,,,1.42,WUHU216DAVISWMX,2013-01-17 16:55:00,
2013-01-17 12:00:00,25.5,20.8,28.16,WNW,302,0.0,7.0,82,0.00,,,1.42,WUHU216DAVISWMX,2013-01-17 17:00:00,
2013-01-17 12:05:00,25.4,20.7,28.16,NNW,330,0.0,7.0,82,0.00,,,1.42,WUHU216DAVISWMX,2013-01-17 17:05:00,
2013-01-17 12:10:00,25.4,20.7,28.15,NNW,330,2.0,5.0,82,0.00,,,1.42,WUHU216DAVISWMX,2013-01-17 17:10:00,
2013-01-17 12:15:00,25.4,20.7,28.15,WNW,297,3.0,5.0,82,0.00,,,1.42,WUHU216DAVISWMX,2013-01-17 17:15:00,
2013-01-17 12:20:00,25.4,20.7,28.15,West,275,6.0,6.0,82,0.00,,,1.42,WUHU216DAVISWMX,2013-01-17 17:20:00,
2013-01-17 12:25:00,25.4,20.4,28.15,WNW,286,0.0,6.0,81,0.00,,,1.42,WUHU216DAVISWMX,2013-01-17 17:25:00,
2013-01-17 12:30:00,25.6,20.9,28.15,NW,325,3.0,6.0,82,0.00,,,1.42,WUHU216DAVISWMX,2013-01-17 17:30:00,
2013-01-17 12:35:00,25.7,21.0,28.15,West,276,0.0,6.0,82,0.00,,,1.42,WUHU216DAVISWMX,2013-01-17 17:35:00,
2013-01-17 12:40:00,25.7,20.7,28.15,West,281,4.0,8.0,81,0.00,,,1.42,WUHU216DAVISWMX,2013-01-17 17:40:00,
2013-01-17 12:45:00,25.9,20.9,28.14,West,281,3.0,8.0,81,0.00,,,1.42,WUHU216DAVISWMX,2013-01-17 17:45:00,
2013-01-17 12:50:00,25.9,20.9,28.15,West,277,0.0,5.0,81,0.00,,,1.42,WUHU216DAVISWMX,2013-01-17 17:50:00,
2013-01-17 12:55:00,26.2,21.2,28.13,West,274,0.0,5.0,81,0.00,,,1.42,WUHU216DAVISWMX,2013-01-17 17:55:00,
2013-01-17 13:00:00,26.4,21.4,28.13,West,274,0.0,4.0,81,0.00,,,1.42,WUHU216DAVISWMX,2013-01-17 18:00:00,
2013-01-17 13:05:00,26.2,20.6,28.14,West,275,1.0,5.0,79,0.00,,,1.42,WUHU216DAVISWMX,2013-01-17 18:05:00,
2013-01-17 13:10:00,26.3,21.0,28.15,West,268,4.0,7.0,80,0.00,,,1.42,WUHU216DAVISWMX,2013-01-17 18:10:00,
2013-01-17 13:15:00,26.3,20.7,28.15,West,267,3.0,7.0,79,0.00,,,1.42,WUHU216DAVISWMX,2013-01-17 18:15:00,
2013-01-17 13:20:00,26.4,20.8,28.15,West,267,4.0,4.0,79,0.00,,,1.42,WUHU216DAVISWMX,2013-01-17 18:20:00,
2013-01-17 13:25:00,26.5,20.6,28.14,West,268,0.0,4.0,78,0.00,,,1.42,WUHU216DAVISWMX,2013-01-17 18:25:00,
2013-01-17 13:30:00,26.5,20.6,28.13,West,268,2.0,4.0,78,0.00,,,1.42,WUHU216DAVISWMX,2013-01-17 18:30:00,
2013-01-17 13:35:00,26.3,20.1,28.12,WNW,293,1.0,5.0,77,0.00,,,1.42,WUHU216DAVISWMX,2013-01-17 18:35:00,
2013-01-17 13:40:00,26.1,19.9,28.12,WNW,296,5.0,6.0,77,0.00,,,1.42,WUHU216DAVISWMX,2013-01-17 18:40:00,
2013-01-17 13:45:00,25.9,19.7,28.12,WNW,290,3.0,7.0,77,0.00,,,1.42,WUHU216DAVISWMX,2013-01-17 18:45:00,
2013-01-17 13:50:00,25.9,19.7,28.12,WNW,290,0.0,7.0,77,0.00,,,1.42,WUHU216DAVISWMX,2013-01-17 18:50:00,
2013-01-17 13:55:00,25.8,19.9,28.11,WNW,290,4.0,5.0,78,0.00,,,1.42,WUHU216DAVISWMX,2013-01-17 18:55:00,
2013-01-17 14:00:00,25.9,19.7,28.11,WNW,290,0.0,5.0,77,0.00,,,1.42,WUHU216DAVISWMX,2013-01-17 19:00:00,
2013-01-17 14:05:00,25.9,20.0,28.11,WNW,291,0.0,4.0,78,0.00,,,1.42,WUHU216DAVISWMX,2013-01-17 19:05:00,
2013-01-17 14:10:00,25.8,19.6,28.11,WNW,291,0.0,5.0,77,0.00,,,1.42,WUHU216DAVISWMX,2013-01-17 19:10:00,
2013-01-17 14:15:00,25.6,19.7,28.11,WNW,291,4.0,5.0,78,0.00,,,1.42,WUHU216DAVISWMX,2013-01-17 19:15:00,
2013-01-17 14:20:00,25.7,19.5,28.11,WNW,298,4.0,6.0,77,0.00,,,1.42,WUHU216DAVISWMX,2013-01-17 19:20:00,
2013-01-17 14:25:00,26.2,20.0,28.10,WNW,303,1.0,6.0,77,0.00,,,1.42,WUHU216DAVISWMX,2013-01-17 19:25:00,
2013-01-17 14:30:00,26.4,20.2,28.10,NW,304,0.0,5.0,77,0.00,,,1.42,WUHU216DAVISWMX,2013-01-17 19:30:00,
2013-01-17 14:35:00,26.6,20.4,28.10,NW,304,0.0,5.0,77,0.01,,,1.43,WUHU216DAVISWMX,2013-01-17 19:35:00,
2013-01-17 14:40:00,26.6,20.4,28.10,WNW,303,0.0,5.0,77,0.01,,,1.43,WUHU216DAVISWMX,2013-01-17 19:40:00,
2013-01-17 14:45:00,26.9,20.7,28.11,WNW,303,0.0,5.0,77,0.01,,,1.43,WUHU216DAVISWMX,2013-01-17 19:45:00,
2013-01-17 14:50:00,26.9,20.7,28.11,WNW,303,0.0,0.0,77,0.01,,,1.43,WUHU216DAVISWMX,2013-01-17 19:50:00,
2013-01-17 14:55:00,26.8,20.6,28.12,WNW,303,0.0,0.0,77,0.01,,,1.43,WUHU216DAVISWMX,2013-01-17 19:55:00,
2013-01-17 15:00:00,26.8,20.6,28.12,WNW,303,0.0,0.0,77,0.01,,,1.43,WUHU216DAVISWMX,2013-01-17 20:00:00,
2013-01-17 15:05:00,26.7,20.5,28.11,WNW,303,0.0,0.0,77,0.01,,,1.43,WUHU216DAVISWMX,2013-01-17 20:05:00,
2013-01-17 15:10:00,26.7,20.5,28.12,WNW,303,0.0,0.0,77,0.01,,,1.43,WUHU216DAVISWMX,2013-01-17 20:10:00,
2013-01-17 15:42:00,25.7,19.2,28.13,NW,321,2.0,2.0,76,0.00,,,1.43,WUHU216DAVISWMX,2013-01-17 20:42:00,
2013-01-17 15:47:00,26.7,20.2,28.13,NW,308,3.0,5.0,76,0.00,,,1.43,WUHU216DAVISWMX,2013-01-17 20:47:00,
2013-01-17 15:52:00,26.6,20.1,28.13,WNW,295,2.0,7.0,76,0.00,,,1.43,WUHU216DAVISWMX,2013-01-17 20:52:00,
2013-01-17 15:57:00,26.7,20.2,28.13,WNW,297,0.0,7.0,76,0.00,,,1.43,WUHU216DAVISWMX,2013-01-17 20:57:00,
2013-01-17 16:02:00,26.7,20.2,28.13,WNW,296,0.0,6.0,76,0.00,,,1.43,WUHU216DAVISWMX,2013-01-17 21:02:00,
2013-01-17 16:07:00,26.8,20.3,28.12,WNW,296,0.0,3.0,76,0.00,,,1.43,WUHU216DAVISWMX,2013-01-17 21:07:00,
2013-01-17 16:12:00,26.7,20.5,28.13,WNW,297,0.0,3.0,77,0.00,,,1.43,WUHU216DAVISWMX,2013-01-17 21:12:00,
2013-01-17 16:17:00,26.6,20.4,28.13,WNW,295,0.0,4.0,77,0.00,,,1.43,WUHU216DAVISWMX,2013-01-17 21:17:00,
2013-01-17 16:22:00,26.7,20.5,28.13,WNW,295,5.0,6.0,77,0.00,,,1.43,WUHU216DAVISWMX,2013-01-17 21:22:00,
2013-01-17 16:27:00,26.6,20.4,28.13,WNW,303,0.0,6.0,77,0.00,,,1.43,WUHU216DAVISWMX,2013-01-17 21:27:00,
2013-01-17 16:32:00,26.8,20.3,28.13,WNW,303,0.0,5.0,76,0.00,,,1.43,WUHU216DAVISWMX,2013-01-17 21:32:00,
2013-01-17 16:37:00,26.8,20.6,28.14,WNW,303,0.0,5.0,77,0.00,,,1.43,WUHU216DAVISWMX,2013-01-17 21:37:00,
2013-01-17 16:42:00,26.8,20.6,28.13,WNW,303,3.0,4.0,77,0.00,,,1.43,WUHU216DAVISWMX,2013-01-17 21:42:00,
2013-01-17 16:47:00,26.8,20.9,28.13,WNW,303,0.0,4.0,78,0.00,,,1.43,WUHU216DAVISWMX,2013-01-17 21:47:00,
2013-01-17 16:52:00,26.7,20.8,28.13,WNW,303,0.0,4.0,78,0.00,,,1.43,WUHU216DAVISWMX,2013-01-17 21:52:00,
2013-01-17 16:57:00,26.6,20.7,28.14,WNW,303,0.0,5.0,78,0.00,,,1.43,WUHU216DAVISWMX,2013-01-17 21:57:00,
2013-01-17 17:02:00,26.6,20.7,28.14,WNW,303,3.0,5.0,78,0.00,,,1.43,WUHU216DAVISWMX,2013-01-17 22:02:00,
2013-01-17 17:07:00,26.6,21.0,28.14,WNW,303,0.0,5.0,79,0.00,,,1.43,WUHU216DAVISWMX,2013-01-17 22:07:00,
2013-01-17 17:12:00,26.6,21.0,28.15,WNW,298,5.0,5.0,79,0.00,,,1.43,WUHU216DAVISWMX,2013-01-17 22:12:00,
2013-01-17 17:17:00,26.6,21.0,28.16,WNW,297,0.0,5.0,79,0.00,,,1.43,WUHU216DAVISWMX,2013-01-17 22:17:00,
2013-01-17 17:22:00,26.6,21.0,28.16,WNW,297,0.0,4.0,79,0.00,,,1.43,WUHU216DAVISWMX,2013-01-17 22:22:00,
2013-01-17 17:27:00,26.5,21.2,28.16,WNW,297,0.0,3.0,80,0.00,,,1.43,WUHU216DAVISWMX,2013-01-17 22:27:00,
2013-01-17 17:32:00,26.4,21.1,28.15,WNW,297,0.0,2.0,80,0.00,,,1.43,WUHU216DAVISWMX,2013-01-17 22:32:00,
2013-01-17 17:37:00,26.3,21.0,28.15,WNW,297,0.0,3.0,80,0.00,,,1.43,WUHU216DAVISWMX,2013-01-17 22:37:00,
2013-01-17 17:42:00,26.4,21.1,28.16,WNW,297,0.0,3.0,80,0.00,,,1.43,WUHU216DAVISWMX,2013-01-17 22:42:00,
2013-01-17 17:47:00,26.2,20.9,28.16,WNW,297,3.0,4.0,80,0.00,,,1.43,WUHU216DAVISWMX,2013-01-17 22:47:00,
2013-01-17 17:52:00,26.2,20.9,28.16,WNW,297,0.0,5.0,80,0.00,,,1.43,WUHU216DAVISWMX,2013-01-17 22:52:00,
2013-01-17 17:57:00,26.3,21.0,28.15,WNW,297,0.0,5.0,80,0.00,,,1.43,WUHU216DAVISWMX,2013-01-17 22:57:00,
2013-01-17 18:02:00,26.3,21.3,28.16,WNW,297,0.0,5.0,81,0.00,,,1.43,WUHU216DAVISWMX,2013-01-17 23:02:00,
2013-01-17 18:07:00,26.1,21.1,28.15,WNW,297,0.0,5.0,81,0.00,,,1.43,WUHU216DAVISWMX,2013-01-17 23:07:00,
2013-01-17 18:12:00,26.1,20.8,28.15,WNW,298,5.0,5.0,80,0.00,,,1.43,WUHU216DAVISWMX,2013-01-17 23:12:00,
2013-01-17 18:17:00,26.1,20.8,28.15,WNW,298,0.0,5.0,80,0.00,,,1.43,WUHU216DAVISWMX,2013-01-17 23:17:00,
2013-01-17 18:22:00,26.1,20.8,28.15,WNW,298,0.0,5.0,80,0.00,,,1.43,WUHU216DAVISWMX,2013-01-17 23:22:00,
2013-01-17 18:27:00,26.3,21.3,28.14,WNW,298,0.0,2.0,81,0.00,,,1.43,WUHU216DAVISWMX,2013-01-17 23:27:00,
2013-01-17 18:32:00,26.3,21.3,28.15,WNW,297,0.0,0.0,81,0.00,,,1.43,WUHU216DAVISWMX,2013-01-17 23:32:00,
2013-01-17 18:37:00,26.2,21.2,28.15,WNW,297,0.0,0.0,81,0.00,,,1.43,WUHU216DAVISWMX,2013-01-17 23:37:00,
2013-01-17 18:42:00,26.3,21.5,28.15,WNW,297,0.0,0.0,82,0.00,,,1.43,WUHU216DAVISWMX,2013-01-17 23:42:00,
2013-01-17 18:47:00,26.2,21.4,28.14,WNW,298,0.0,2.0,82,0.00,,,1.43,WUHU216DAVISWMX,2013-01-17 23:47:00,
2013-01-17 18:52:00,26.2,21.4,28.15,WNW,297,0.0,2.0,82,0.00,,,1.43,WUHU216DAVISWMX,2013-01-17 23:52:00,
2013-01-17 18:57:00,26.1,21.3,28.15,WNW,298,0.0,0.0,82,0.00,,,1.43,WUHU216DAVISWMX,2013-01-17 23:57:00,
2013-01-17 19:02:00,26.1,21.3,28.14,WNW,297,0.0,4.0,82,0.00,,,1.43,WUHU216DAVISWMX,2013-01-18 00:02:00,
2013-01-17 19:07:00,26.0,21.2,28.14,WNW,297,0.0,4.0,82,0.00,,,1.43,WUHU216DAVISWMX,2013-01-18 00:07:00,
2013-01-17 19:12:00,26.1,21.3,28.15,WNW,297,0.0,3.0,82,0.00,,,1.43,WUHU216DAVISWMX,2013-01-18 00:12:00,
2013-01-17 19:17:00,26.1,21.3,28.15,WNW,297,0.0,0.0,82,0.00,,,1.43,WUHU216DAVISWMX,2013-01-18 00:17:00,
2013-01-17 19:22:00,26.0,21.2,28.15,WNW,297,0.0,0.0,82,0.00,,,1.43,WUHU216DAVISWMX,2013-01-18 00:22:00,
2013-01-17 19:27:00,26.0,21.5,28.15,WNW,297,0.0,0.0,83,0.00,,,1.43,WUHU216DAVISWMX,2013-01-18 00:27:00,
2013-01-17 19:32:00,25.8,21.3,28.15,WNW,297,0.0,0.0,83,0.00,,,1.43,WUHU216DAVISWMX,2013-01-18 00:32:00,
2013-01-17 19:37:00,25.9,21.4,28.15,WNW,297,0.0,3.0,83,0.00,,,1.43,WUHU216DAVISWMX,2013-01-18 00:37:00,
2013-01-17 19:43:00,25.9,21.4,28.15,WNW,297,0.0,4.0,83,0.00,,,1.43,WUHU216DAVISWMX,2013-01-18 00:43:00,
2013-01-17 19:48:00,25.9,21.4,28.15,WNW,298,2.0,5.0,83,0.00,,,1.43,WUHU216DAVISWMX,2013-01-18 00:48:00,
2013-01-17 19:53:00,25.9,21.4,28.15,WNW,298,3.0,5.0,83,0.00,,,1.43,WUHU216DAVISWMX,2013-01-18 00:53:00,
2013-01-17 19:58:00,25.9,21.4,28.15,WNW,283,4.0,7.0,83,0.00,,,1.43,WUHU216DAVISWMX,2013-01-18 00:58:00,
2013-01-17 20:03:00,25.9,21.4,28.15,WNW,290,0.0,7.0,83,0.00,,,1.43,WUHU216DAVISWMX,2013-01-18 01:03:00,
2013-01-17 20:08:00,25.9,21.2,28.16,WNW,290,7.0,7.0,82,0.00,,,1.43,WUHU216DAVISWMX,2013-01-18 01:08:00,
2013-01-17 20:13:00,25.8,21.3,28.16,WNW,290,3.0,7.0,83,0.00,,,1.43,WUHU216DAVISWMX,2013-01-18 01:13:00,
2013-01-17 20:18:00,25.9,21.4,28.16,WNW,290,2.0,4.0,83,0.00,,,1.43,WUHU216DAVISWMX,2013-01-18 01:18:00,
2013-01-17 20:23:00,25.7,21.5,28.15,West,275,4.0,9.0,84,0.00,,,1.43,WUHU216DAVISWMX,2013-01-18 01:23:00,
2013-01-17 20:28:00,25.7,21.2,28.15,NW,309,2.0,9.0,83,0.00,,,1.43,WUHU216DAVISWMX,2013-01-18 01:28:00,
2013-01-17 20:33:00,25.7,21.5,28.14,NW,308,0.0,7.0,84,0.00,,,1.43,WUHU216DAVISWMX,2013-01-18 01:33:00,
2013-01-17 20:38:00,25.7,21.5,28.14,NW,308,0.0,5.0,84,0.00,,,1.43,WUHU216DAVISWMX,2013-01-18 01:38:00,
2013-01-17 20:43:00,25.7,21.5,28.14,NW,308,0.0,0.0,84,0.00,,,1.43,WUHU216DAVISWMX,2013-01-18 01:43:00,
2013-01-17 20:48:00,25.7,21.5,28.14,NW,308,0.0,0.0,84,0.00,,,1.43,WUHU216DAVISWMX,2013-01-18 01:48:00,
2013-01-17 20:53:00,25.7,21.5,28.16,NW,308,0.0,0.0,84,0.00,,,1.43,WUHU216DAVISWMX,2013-01-18 01:53:00,
2013-01-17 20:58:00,25.7,21.5,28.16,NW,308,0.0,0.0,84,0.00,,,1.43,WUHU216DAVISWMX,2013-01-18 01:58:00,
2013-01-17 20:59:00,25.6,21.4,28.15,NW,312,0.0,0.0,84,0.00,,,1.43,WUHU216DAVISWMX,2013-01-18 01:59:00,
2013-01-17 21:03:00,25.6,21.4,28.15,NW,312,0.0,0.0,84,0.00,,,1.43,WUHU216DAVISWMX,2013-01-18 02:03:00,
2013-01-17 21:08:00,25.6,21.4,28.15,NW,312,0.0,0.0,84,0.00,,,1.43,WUHU216DAVISWMX,2013-01-18 02:08:00,
2013-01-17 21:34:00,25.2,20.2,28.16,NW,307,5.0,5.0,81,0.00,,,1.43,WUHU216DAVISWMX,2013-01-18 02:34:00,
2013-01-17 21:39:00,25.3,20.3,28.16,WNW,290,9.0,12.0,81,0.00,,,1.43,WUHU216DAVISWMX,2013-01-18 02:39:00,
2013-01-17 21:44:00,25.3,20.6,28.16,WNW,285,5.0,12.0,82,0.00,,,1.43,WUHU216DAVISWMX,2013-01-18 02:44:00,
2013-01-17 21:49:00,25.1,20.1,28.15,NW,312,9.0,10.0,81,0.00,,,1.43,WUHU216DAVISWMX,2013-01-18 02:49:00,
2013-01-17 21:54:00,25.1,20.4,28.14,NW,305,14.0,14.0,82,0.00,,,1.43,WUHU216DAVISWMX,2013-01-18 02:54:00,
2013-01-17 21:59:00,25.0,20.0,28.14,West,280,5.0,14.0,81,0.00,,,1.43,WUHU216DAVISWMX,2013-01-18 02:59:00,
2013-01-17 22:04:00,25.0,20.3,28.14,WNW,288,10.0,13.0,82,0.00,,,1.43,WUHU216DAVISWMX,2013-01-18 03:04:00,
2013-01-17 22:09:00,24.9,20.2,28.14,West,277,5.0,12.0,82,0.00,,,1.43,WUHU216DAVISWMX,2013-01-18 03:09:00,
2013-01-17 22:14:00,25.0,20.3,28.16,WNW,290,7.0,15.0,82,0.00,,,1.43,WUHU216DAVISWMX,2013-01-18 03:14:00,
2013-01-17 22:19:00,25.0,20.3,28.16,WNW,297,5.0,15.0,82,0.00,,,1.43,WUHU216DAVISWMX,2013-01-18 03:19:00,
2013-01-17 22:24:00,24.9,20.2,28.15,WNW,290,6.0,14.0,82,0.00,,,1.43,WUHU216DAVISWMX,2013-01-18 03:24:00,
2013-01-17 22:29:00,25.0,20.0,28.14,WNW,288,12.0,14.0,81,0.00,,,1.43,WUHU216DAVISWMX,2013-01-18 03:29:00,
2013-01-17 22:34:00,24.8,19.8,28.14,NW,309,4.0,14.0,81,0.00,,,1.43,WUHU216DAVISWMX,2013-01-18 03:34:00,
2013-01-17 22:39:00,24.8,20.1,28.14,WNW,284,5.0,12.0,82,0.00,,,1.43,WUHU216DAVISWMX,2013-01-18 03:39:00,
2013-01-17 22:44:00,24.8,20.1,28.13,NW,305,4.0,12.0,82,0.00,,,1.43,WUHU216DAVISWMX,2013-01-18 03:44:00,
2013-01-17 22:49:00,24.7,20.0,28.12,WNW,303,12.0,12.0,82,0.00,,,1.43,WUHU216DAVISWMX,2013-01-18 03:49:00,
2013-01-17 22:54:00,24.6,19.9,28.13,WNW,284,7.0,13.0,82,0.00,,,1.43,WUHU216DAVISWMX,2013-01-18 03:54:00,
2013-01-17 22:59:00,24.7,20.3,28.14,West,281,0.0,13.0,83,0.00,,,1.43,WUHU216DAVISWMX,2013-01-18 03:59:00,
2013-01-17 23:04:00,24.7,20.3,28.13,West,281,0.0,7.0,83,0.00,,,1.43,WUHU216DAVISWMX,2013-01-18 04:04:00,
2013-01-17 23:09:00,24.7,20.0,28.14,West,281,0.0,0.0,82,0.00,,,1.43,WUHU216DAVISWMX,2013-01-18 04:09:00,
2013-01-17 23:14:00,24.7,20.0,28.13,West,281,0.0,0.0,82,0.00,,,1.43,WUHU216DAVISWMX,2013-01-18 04:14:00,
2013-01-17 23:19:00,24.7,20.0,28.13,West,281,0.0,0.0,82,0.00,,,1.43,WUHU216DAVISWMX,2013-01-18 04:19:00,
2013-01-17 23:24:00,24.7,20.0,28.14,West,281,0.0,0.0,82,0.00,,,1.43,WUHU216DAVISWMX,2013-01-18 04:24:00,
2013-01-17 23:25:00,24.7,20.0,28.14,West,281,0.0,0.0,82,0.00,,,1.43,WUHU216DAVISWMX,2013-01-18 04:25:00,
2013-01-17 23:29:00,24.7,20.0,28.14,West,281,0.0,0.0,82,0.00,,,1.43,WUHU216DAVISWMX,2013-01-18 04:29:00,
2013-01-17 23:34:00,24.7,20.0,28.14,West,281,0.0,0.0,82,0.00,,,1.43,WUHU216DAVISWMX,2013-01-18 04:34:00,
2013-01-17 23:54:00,24.6,19.6,28.13,WNW,303,5.0,5.0,81,0.00,,,1.43,WUHU216DAVISWMX,2013-01-18 04:54:00,
2013-01-17 23:59:00,24.7,19.7,28.13,WNW,295,10.0,16.0,81,0.00,,,1.43,WUHU216DAVISWMX,2013-01-18 04:59:00,